Current weather by "City, St" or "zip code"  
 

Current Conditions: Phoenix-Mesa Gateway Airport, AZ

A Few Clouds


93.0 F

Last Updated on Sep 22 2020, 6:50 pm MST
Humidity: 20%
Wind Speed: NE 3.5 mph
Barometer 29.91 in
Dewpoint: 46.4 F
Visibility: 10.00 mi
Precip: --
Heat Index: 89 F
Wind Chill: NA
Current conditions at:

Phoenix-Mesa Gateway Airport, AZ (KIWA)

Lat: 33.31667 Lon: 111.65

Local Radar Image active severe weather and emergency alerts image image weather storm and storm spotter reports image weather observation monitoring service image
Local
Radar
Active
Alerts
Storm Reports Obs
Monitoring

Sign-up For Email & Text Message Weather Alert Notification Services



Advertise Here

Observation History for Phoenix-Mesa Gateway Airport, AZ


Time Wind
(mph)
Vis
(mi)
Weather Precip (in) Temperature (F) Relative
Humidity
Wind
Chill
(F)
Heat
Index
(F)
Pressure
Air Dwpt altimeter
(in)
sea level
(mb)
Rmks
6:50 pm MST NE 3.5 10.00 A Few Clouds -- 93.0 46.4 20% NA 89 29.91 M
5:55 pm MST NE 4.6 10.00 A Few Clouds -- 97.0 46.4 18% NA 93 29.91 M
4:55 pm MST NW 3.5 10.00 A Few Clouds -- 97.0 48.2 19% NA 94 29.91 M
3:50 pm MST NW 5.8 10.00 A Few Clouds -- 99.0 50.0 19% NA 96 29.92 M
2:50 pm MST N 0.0 10.00 Mostly Cloudy -- 97.0 50.0 20% NA 94 29.94 M
1:47 pm MST N 5.8 10.00 Mostly Cloudy -- 93.0 50.0 23% NA 90 29.97 M
12:50 pm MST N 10.4 10.00 Mostly Cloudy -- 93.0 51.8 24% NA 90 29.99 M
11:47 am MST W 6.9 10.00 Mostly Cloudy -- 93.0 50.0 23% NA 90 30.02 M
10:47 am MST N 11.5 10.00 Mostly Cloudy -- 91.0 51.8 26% NA 88 30.03 M
7:47 am MST SW 9.2 10.00 Mostly Cloudy -- 81.0 55.4 42% NA 81 30.02 M
6:47 am MST E 10.4 10.00 Mostly Cloudy -- 81.0 48.2 32% NA 80 29.99 M
5:50 am MST E 4.6 10.00 Mostly Cloudy -- 81.0 51.8 37% NA 80 29.97 M
4:50 am MST S 4.6 10.00 Mostly Cloudy -- 82.0 50.0 32% NA 81 29.95 M
3:50 am MST NW 11.5 10.00 Fair -- 86.0 48.2 27% NA 83 29.92 M
2:55 am MST N 6.9 G 18.4 10.00 Partly Cloudy -- 92.0 48.7 22% NA 89 29.93 M
1:55 am MST W 4.6 10.00 Partly Cloudy -- 82.0 50.0 33% NA 81 29.92 M
12:55 am MST SW 3.5 10.00 Fair -- 85.0 48.6 28% NA 83 29.92 M
11:50 pm MST SE 4.6 10.00 Mostly Cloudy -- 84.0 48.2 29% NA 82 29.91 M
9:58 pm MST E 5.8 10.00 Mostly Cloudy -- 86.0 46.4 25% NA 83 29.91 M
8:58 pm MST NW 4.6 10.00 Mostly Cloudy -- 91.0 46.4 21% NA 87 29.90 M

Regional Weather Observation


Mesa / Falcon Field, AZ (KFFZ)

Fair
91.0 F

Chandler, Chandler Municipal Airport, AZ (KCHD)

Fair
91.0 F

Phoenix-Mesa Gateway Airport, AZ (KIWA)

A Few Clouds
93.0 F

Phoenix, Phoenix Sky Harbor International Airport, AZ (KPHX)

A Few Clouds
98.0 F

Phoenix, Phoenix-Deer Valley Municipal Airport, AZ (KDVT)

Fair
90.0 F

Glendale, Glendale Municipal Airport, AZ (KGEU)

A Few Clouds
97.0 F